Location: Artiguedieu
(43.5000°N, 0.5454°E)
Time: 10:29:00
(UTC+00:00)

Vanguard 1 Rocket - Pass Details

Date: 02 August 2021
Orbit: 650 x 4226 km, 34.3° (Epoch: 24 September)

Event Time Altitude Azimuth Distance (km) Brightness Sun altitude
Rises 12:56:11 0° 266° (W) 6,994 12.1 61.9°
Reaches altitude 10° 13:01:48 10° 262° (W) 5,391 11.7 61.4°
Maximum altitude 13:14:46 48° 195° (SSW) 2,006 11.0 60.1°
Drops below altitude 10° 13:21:40 10° 123° (ESE) 2,932 10.1 59.4°
Sets 13:23:51 0° 116° (ESE) 3,633 10.4 59.1°
